Location: *
(28.3744°N, 81.5492°W)
Time: 04:17:14
(UTC+00:00)

Cosmos 1980 - Pass Details

Date: 15 June 2025
Orbit: 838 x 845 km, 71.0° (Epoch: 11 July)

Event Time Altitude Azimuth Distance (km) Brightness Sun altitude
Rises 02:54:48 0° 338° (NNW) 3,398 8.0 -26.7°
Reaches altitude 10° 02:57:15 10° 337° (NNW) 2,460 7.0 -27.0°
Maximum altitude 03:02:52 74° 253° (WSW) 875 3.7 -27.8°
Enters shadow 03:03:05 73° 232° (SW) 879 3.6 -27.8°
